[[{"header":{"parameterUnit":"m.s-1","parameterCategory":1,"la1":30.2991,"la2":30.254,"lo1":-89.0895,"lo2":-89.0444,"dy":0.0017,"dx":0.0017,"nx":28,"ny":28,"refTime":"2024-04-08T21:00:00:Z","depth":0,"parameterNumber":2,"parameterNumberName":"U-component_of_WINDS"},"data":[0,0,0,0,0,0,0,0,0,0,0,0,0,0,0,0,0,0,0,0,0,0,0,0,0,0,0,0,0,0,0,0,0,0,0,0,0,0,0,0,0,0,0,0,0,0,0,0,0,0,0,0,0,0,0,0,0,0,-4.9305,-4.9305,0,-4.9325,-4.9326,-4.9326,-4.9288,-4.9286,-4.9285,-4.9284,-4.9303,-4.9304,-4.9306,0,0,0,0,0,0,0,0,0,0,0,0,0,-4.9231,-4.9232,-4.9305,-4.9305,-4.9306,-4.9325,-4.9326,-4.9326,-4.9288,-4.9286,-4.9285,-4.9283,-4.9302,-4.9304,-4.9306,0,0,0,0,0,0,0,0,0,0,0,0,0,-4.9258,-4.9233,-4.9305,-4.9289,-4.9288,-4.9325,-4.9326,-4.9326,-4.9288,-4.9286,-4.9284,-4.9283,-4.9301,-4.9304,-4.9306,-4.936,0,0,-4.9314,-4.9315,0,0,0,0,0,0,0,0,-4.9257,-4.9261,-4.9291,-4.929,-4.9289,-4.9302,-4.9306,-4.9337,-4.9289,-4.9288,-4.9284,-4.9282,-4.9304,-4.9306,-4.9314,-4.936,-4.9361,-4.9314,-4.9316,-4.9317,-4.9317,0,0,0,0,0,0,0,-4.9255,-4.926,-4.9313,-4.9292,-4.929,-4.928,-4.9282,-4.9312,-4.9306,-4.9288,-4.9285,-4.9288,-4.9303,-4.9312,-4.9314,-4.9362,-4.9314,-4.9316,-4.9318,-4.9319,-4.9452,-4.9453,0,0,0,0,0,0,-4.9255,-4.9259,-4.9312,-4.9314,-4.9268,-4.9283,-4.9285,-4.93,-4.9306,-4.9305,-4.929,-4.9286,-4.9308,-4.9311,-4.9315,-4.9376,-4.9317,-4.9319,-4.932,-4.945,-4.9452,-4.9454,0,0,0,0,0,0,-4.9254,-4.9261,-4.9312,-4.9285,-4.9291,-4.9286,-4.9303,-4.9301,-4.931,-4.9307,-4.9306,-4.93,-4.9307,-4.9311,-4.9348,-4.9376,-4.932,-4.9322,-4.9447,-4.945,-4.9453,-4.95,0,0,0,0,0,0,-4.9252,-4.926,-4.9281,-4.9286,-4.9293,-4.9346,-4.9305,-4.9303,-4.9314,-4.931,-4.9316,-4.9315,-4.9306,-4.9345,-4.9351,-4.9378,-4.9324,-4.9445,-4.9449,-4.9452,-4.9496,-4.9504,-4.9511,0,0,0,0,0,-4.9249,-4.9293,-4.9282,-4.9289,-4.9319,-4.9348,-4.9351,-4.934,-4.9317,-4.9337,-4.9335,-4.9315,-4.9373,-4.9349,-4.9356,-4.9384,-4.9443,-4.9447,-4.9452,-4.9492,-4.9502,-4.9511,0,0,0,0,0,0,-4.929,-4.9293,-4.9281,-4.9328,-4.9338,-4.9341,-4.9366,-4.9351,-4.9367,-4.9362,-4.9346,-4.9348,-4.9388,-4.939,-4.9364,-4.9436,-4.9404,-4.941,-4.9432,-4.9442,-4.9449,-4.9447,-4.9326,0,0,0,0,0,-4.9305,-4.9329,-4.933,-4.9371,-4.9377,-4.9371,-4.9383,-4.9374,-4.9383,-4.9386,-4.9387,-4.9397,-4.9416,-4.943,-4.9448,-4.9497,-4.9496,-4.952,-4.9527,-4.9534,-4.9538,-4.9563,-4.9572,-4.9469,-4.9469,-4.9469,0,0,-4.9335,-4.934,-4.9355,-4.938,-4.9386,-4.941,-4.9375,-4.9402,-4.9419,-4.939,-4.9425,-4.9427,-4.9436,-4.9479,-4.9498,-4.9482,-4.9567,-4.954,-4.9545,-4.9546,-4.9568,-4.9578,-4.9587,-4.9472,-4.9472,-4.9471,0,0,-4.9401,-4.9408,-4.9442,-4.945,-4.946,-4.9456,-4.9465,-4.947,-4.947,-4.9506,-4.9484,-4.9504,-4.954,-4.9546,-4.9554,-4.9624,-4.9606,-4.9631,-4.967,-4.9694,-4.9702,-4.9709,-4.9732,-4.9741,-4.9636,-4.9636,-4.9636,0,-4.9436,-4.9473,-4.9462,-4.949,-4.9501,-4.9477,-4.9511,-4.9519,-4.9534,-4.9542,-4.9524,-4.9567,-4.9572,-4.9615,-4.9632,-4.9641,-4.9648,-4.9629,-4.9702,-4.9709,-4.9715,-4.9737,-4.9746,-4.9639,-4.9639,-4.9639,-4.9638,0,-4.9515,-4.954,-4.9567,-4.9583,-4.9597,-4.9628,-4.9621,-4.9636,-4.9626,-4.9623,-4.9659,-4.9664,-4.9682,-4.9693,-4.9683,-4.9735,-4.9724,-4.9705,-4.9672,-4.9728,-4.9748,-4.9756,-4.9643,-4.9642,-4.9641,-4.9641,0,0,-4.9605,-4.9616,-4.9625,-4.9632,-4.9642,-4.9661,-4.9691,-4.971,-4.9722,-4.9735,-4.9758,-4.9789,-4.9771,-4.978,-4.9771,-4.9793,-4.9845,-4.977,-4.977,-4.9782,-4.99,-4.9913,-4.9922,-4.9834,-4.9836,-4.9837,-4.9899,0,-4.9669,-4.9721,-4.9712,-4.9762,-4.9784,-4.9763,-4.9789,-4.9797,-4.9796,-4.9814,-4.9813,-4.9834,-4.981,-4.9815,-4.9836,-4.9834,-4.9868,-4.983,-4.9854,-4.9855,-4.9849,-4.9933,-4.9946,-5.0004,-4.9906,-4.9908,-4.9909,0,-4.975,-4.9765,-4.9818,-4.9824,-4.9833,-4.9856,-4.9872,-4.9891,-4.99,-4.9898,-4.9909,-4.9895,-4.9924,-4.9894,-4.9932,-4.9906,-4.9916,-4.9917,-4.9919,-4.9918,-4.9883,-4.9932,-5.0023,-5.003,-4.9921,-4.992,-4.9919,0,-4.9808,-4.9842,-4.9877,-4.9884,-4.9893,-4.9909,-4.9914,-4.9921,-4.9933,-4.9947,-4.9954,-4.9971,-4.998,-4.9993,-4.9985,-4.9964,-5.0024,-4.9993,-5.0021,-5.0021,-5.0032,-5.0031,-5.0123,-5.0044,-5.0043,-5.0043,-5.0043,0,-4.9878,-4.9911,-4.9903,-4.9924,-4.9959,-4.9949,-4.9984,-4.9986,-4.9993,-5.0013,-4.9997,-5.0016,-5.0005,-5.0024,-5.0018,-5.0049,-5.0054,-5.0052,-5.0049,-5.0051,-5.0051,-5.0055,-5.005,-5.0046,-5.0045,-5.0045,-5.0044,0,-4.9948,-4.9944,-4.9981,-4.9986,-4.9989,-5.0014,-5.0018,-5.0038,-5.0036,-5.0062,-5.0068,-5.0064,-5.0085,-5.0079,-5.0102,-5.0098,-5.0137,-5.0131,-5.0134,-5.0131,-5.0159,-5.0155,-5.0254,-5.0265,-5.0181,-5.0182,-5.0182,0,-4.9992,-5.0016,-5.0024,-5.0037,-5.0043,-5.0064,-5.0076,-5.0067,-5.008,-5.0092,-5.011,-5.013,-5.0144,-5.0179,-5.0178,-5.0195,-5.0187,-5.0221,-5.0189,-5.0191,-5.0184,-5.0182,-5.0183,-5.0226,-5.0227,-5.0228,-5.0228,0,-5.0069,-5.0066,-5.0084,-5.0102,-5.0117,-5.013,-5.0141,-5.0153,-5.0145,-5.016,-5.0181,-5.0193,-5.0216,-5.0235,-5.0251,-5.0254,-5.0239,-5.0239,-5.0245,-5.0247,-5.0247,-5.0245,-5.0148,-5.0236,-5.0235,-5.0234,-5.0234,-5.0234,-5.0125,-5.0145,-5.0154,-5.0175,-5.0183,-5.0194,-5.0212,-5.0213,-5.0231,-5.0249,-5.0243,-5.0267,-5.0276,-5.0295,-5.0301,-5.0319,-5.0306,-5.0316,-5.0319,-5.0321,-5.0323,-5.0246,-5.0322,-5.0322,-5.0321,-5.0321,-5.0321,0,-5.02,-5.0205,-5.0224,-5.0241,-5.0257,-5.0243,-5.0255,-5.0269,-5.0291,-5.03,-5.0315,-5.0339,-5.0358,-5.0359,-5.0376,-5.039,-5.0384,-5.0395,-5.0392,-5.0393,-5.0335,-5.0326,-5.04,-5.04,-5.04,-5.04,-5.04,-5.04,-5.0241,-5.0273,-5.0272,-5.0308,-5.0312,-5.0336,-5.0344,-5.0353,-5.0361,-5.0388,-5.0404,-5.0405,-5.0411,-5.0428,-5.0444,-5.0444,-5.045,-5.0463,-5.046,-5.0405,-5.0397,-5.039,-5.0381,-5.0465,-5.0465,-5.0516,-5.0516,-5.0517]},{"header":{"parameterUnit":"m.s-1","parameterCategory":1,"la1":30.2991,"la2":30.254,"lo1":-89.0895,"lo2":-89.0444,"dy":0.0017,"dx":0.0017,"nx":28,"ny":28,"refTime":"2024-04-08T21:00:00:Z","depth":0,"parameterNumber":3,"parameterNumberName":"V-component_of_WINDS"},"data":[0,0,0,0,0,0,0,0,0,0,0,0,0,0,0,0,0,0,0,0,0,0,0,0,0,0,0,0,0,0,0,0,0,0,0,0,0,0,0,0,0,0,0,0,0,0,0,0,0,0,0,0,0,0,0,0,0,0,3.8163,3.8164,0,3.8265,3.8267,3.8268,3.8292,3.8291,3.829,3.8289,3.8391,3.8394,3.8397,0,0,0,0,0,0,0,0,0,0,0,0,0,3.7986,3.7989,3.8163,3.8164,3.8165,3.8265,3.8267,3.8268,3.8292,3.8291,3.829,3.8289,3.839,3.8394,3.8398,0,0,0,0,0,0,0,0,0,0,0,0,0,3.8073,3.799,3.8162,3.8189,3.8193,3.8265,3.8267,3.8268,3.8292,3.8291,3.829,3.8289,3.8388,3.8393,3.8398,3.845,0,0,3.8414,3.8416,0,0,0,0,0,0,0,0,3.8068,3.8079,3.8184,3.8187,3.8191,3.8265,3.8242,3.8329,3.8292,3.8254,3.8289,3.8288,3.8349,3.8358,3.8379,3.8455,3.8459,3.8414,3.8417,3.8419,3.8421,0,0,0,0,0,0,0,3.8062,3.8075,3.8203,3.8185,3.819,3.8196,3.8207,3.8258,3.8306,3.8257,3.8259,3.8271,3.8351,3.8374,3.8382,3.8461,3.8414,3.8418,3.8421,3.8423,3.8588,3.8589,0,0,0,0,0,0,3.8052,3.807,3.82,3.8206,3.8126,3.82,3.8212,3.8242,3.8306,3.8315,3.8272,3.8272,3.8366,3.8376,3.8385,3.8453,3.8419,3.8424,3.8427,3.8586,3.8588,3.8589,0,0,0,0,0,0,3.8048,3.8063,3.8196,3.8139,3.8156,3.8204,3.8237,3.8245,3.8268,3.8317,3.8325,3.8287,3.8366,3.8378,3.8435,3.8456,3.8426,3.8431,3.8585,3.8587,3.8589,3.8586,0,0,0,0,0,0,3.8042,3.8061,3.8082,3.8139,3.8159,3.8244,3.8239,3.8247,3.8277,3.8278,3.8333,3.8341,3.8366,3.8427,3.844,3.8463,3.8435,3.8583,3.8586,3.8588,3.8585,3.8588,3.8591,0,0,0,0,0,3.8036,3.8075,3.8083,3.8098,3.8186,3.8245,3.8257,3.8285,3.8278,3.8299,3.8332,3.8339,3.8452,3.8433,3.8447,3.8472,3.8582,3.8585,3.8588,3.8583,3.8587,3.8591,0,0,0,0,0,0,3.8017,3.8083,3.8092,3.8151,3.8193,3.8249,3.8276,3.8288,3.8331,3.833,3.8363,3.8375,3.8431,3.8457,3.8434,3.8527,3.8517,3.8523,3.8508,3.8513,3.8516,3.8509,3.8439,0,0,0,0,0,3.802,3.8064,3.8119,3.8166,3.8186,3.8228,3.8255,3.8274,3.8317,3.8335,3.8371,3.8412,3.8457,3.8486,3.853,3.8588,3.8602,3.8613,3.8616,3.8618,3.8623,3.8659,3.8665,3.8599,3.8599,3.8599,0,0,3.8026,3.8068,3.8093,3.8163,3.8198,3.8242,3.8242,3.8289,3.8322,3.8341,3.8398,3.8426,3.8475,3.8533,3.8561,3.8557,3.8645,3.8622,3.8623,3.8627,3.8663,3.8669,3.8674,3.8601,3.8601,3.8601,0,0,3.8061,3.8096,3.8141,3.8176,3.8229,3.8257,3.8267,3.8323,3.8343,3.8401,3.8417,3.8457,3.8533,3.8568,3.8596,3.8647,3.8656,3.866,3.8676,3.8711,3.8716,3.8721,3.8741,3.8748,3.8665,3.8665,3.8665,0,3.8062,3.813,3.8161,3.8209,3.824,3.8261,3.8307,3.8339,3.8403,3.8424,3.8419,3.8518,3.8551,3.862,3.8633,3.8653,3.8668,3.8654,3.8713,3.8718,3.8723,3.8743,3.875,3.8665,3.8665,3.8665,3.8665,0,3.813,3.8177,3.8207,3.8271,3.8305,3.8351,3.839,3.842,3.8437,3.8465,3.8525,3.8567,3.8621,3.8638,3.8653,3.871,3.8706,3.8706,3.8697,3.8729,3.8748,3.8756,3.8665,3.8665,3.8665,3.8665,0,0,3.8154,3.8238,3.8248,3.8279,3.834,3.8377,3.8424,3.848,3.8507,3.855,3.8592,3.8657,3.8659,3.869,3.871,3.874,3.8781,3.8737,3.8738,3.8745,3.8848,3.8849,3.8857,3.8787,3.8789,3.879,3.8845,0,3.8198,3.8286,3.8316,3.8388,3.8434,3.8456,3.8498,3.854,3.8568,3.8611,3.8641,3.8688,3.8686,3.8705,3.8736,3.8769,3.8802,3.8765,3.8827,3.8829,3.8816,3.8867,3.8868,3.8918,3.8852,3.8854,3.8855,0,3.8261,3.8309,3.8386,3.8444,3.8465,3.8502,3.8556,3.8596,3.8645,3.8663,3.87,3.8718,3.8769,3.8756,3.8828,3.8802,3.8829,3.885,3.8852,3.886,3.8845,3.8878,3.8934,3.8942,3.8866,3.8865,3.8865,0,3.8274,3.8357,3.8415,3.844,3.8509,3.8535,3.8565,3.8613,3.8645,3.8692,3.8714,3.8765,3.8794,3.8833,3.8865,3.8852,3.8935,3.8923,3.8952,3.8952,3.8969,3.8968,3.9032,3.8984,3.8983,3.8983,3.8983,0,3.8321,3.8368,3.8423,3.8458,3.8512,3.8547,3.8599,3.863,3.8673,3.8715,3.8736,3.8775,3.8814,3.8858,3.8883,3.894,3.8952,3.8969,3.8976,3.8969,3.8967,3.8988,3.8986,3.8985,3.8985,3.8985,3.8984,0,3.8345,3.8383,3.8449,3.851,3.8526,3.8564,3.8616,3.8652,3.8681,3.8735,3.8749,3.8796,3.885,3.8885,3.8952,3.8969,3.9032,3.9037,3.9017,3.902,3.9048,3.9046,3.9129,3.9143,3.9083,3.9084,3.9084,0,3.8373,3.8411,3.8477,3.8508,3.8538,3.8587,3.8621,3.8657,3.8691,3.8751,3.878,3.8835,3.8882,3.8966,3.9006,3.9058,3.9066,3.9091,3.9073,3.9066,3.9069,3.9067,3.9072,3.9094,3.9095,3.9095,3.9095,0,3.842,3.8438,3.8487,3.8543,3.8583,3.8629,3.8674,3.8698,3.8741,3.8779,3.8835,3.8872,3.8942,3.8998,3.9054,3.9084,3.9098,3.9101,3.9111,3.9105,3.9093,3.9102,3.9027,3.9099,3.9098,3.9098,3.9098,3.9098,3.8449,3.8484,3.8538,3.8592,3.863,3.8673,3.8711,3.8747,3.8795,3.8857,3.8874,3.8934,3.8983,3.9061,3.9093,3.914,3.9137,3.915,3.9154,3.9158,3.916,3.9084,3.915,3.9149,3.9149,3.9149,3.9149,0,3.8499,3.8535,3.8585,3.8649,3.8692,3.8702,3.8754,3.8789,3.8842,3.8887,3.8934,3.9,3.9054,3.9099,3.9155,3.9184,3.9192,3.9198,3.9197,3.9204,3.9157,3.9144,3.9191,3.9191,3.9191,3.9191,3.9191,3.9191,3.8531,3.8592,3.8617,3.8698,3.8733,3.8793,3.8822,3.8862,3.8899,3.8973,3.9019,3.9048,3.9094,3.9155,3.9205,3.9217,3.9238,3.9243,3.9256,3.9212,3.9207,3.9203,3.9191,3.9247,3.9247,3.93,3.93,3.93]}]]